sat.trackr.live / text

‹ back to catalog

FLOCK 4G-36

NORAD 62675 · 2025-009BU

PAYLOAD ACTIVE UNKNOWN

§ Identity

Operator
Country
US
Launch date
2025-01-14
Launch site
AFWTR
Launch vehicle
Mass (kg)
RCS (m²)

Purposes: earth_obs

External: N2YO · Heavens-Above · Gunter

§ Orbital elements

Epoch: 2026-09-19T15:43:44.596128Z

Period
94.05 min
Inclination
97.3957°
Eccentricity
0.0004052
Mean motion
15.31026307 rev/d
Perigee alt
470.0 km
Apogee alt
475.5 km
Semi-major
6,850.9 km
B*
2.5656e-4
RAAN
344.0272°
Arg perigee
4.5622°
Mean anomaly
355.5656°
Rev number
9,334

§ Raw data

FLOCK 4G-361 62675U 25009BU  26262.65537727  .00007615  00000+0  25656-3 0  99972 62675  97.3957 344.0272 0004052   4.5622 355.5656 15.31026307 93342

JSON: /api/v1/satellites/62675 · /tle

For live sub-satellite position, see the globe view (requires WebGL).

§ Visibility from observer

Set your observer location to see the next 7 days of passes ≥ 10°. The values pass through the URL so the page stays shareable.

No JS? Fill the form by hand. The geolocation button needs JavaScript.